Regional Weather Roundup
Issued by NWS

Home | Current Version | Previous Version | Text Only | Print | Product List | Glossary Off
Versions: 1 2 3 4 5 6 7 8 9 10 11 12 13 14 15 16 17 18 19 20 21 22 23 24 25 26 27 28 29 30 31 32 33 34 35 36 37 38 39 40 41 42 43 44 45 46 47 48 49 50

000
ASUS43 KLSX 210907
RWRMO

WEATHER SUMMARY FOR MISSOURI
NATIONAL WEATHER SERVICE SPRINGFIELD MO
400 AM CDT SAT APR 21 2018

NOTE: "FAIR" INDICATES FEW OR NO CLOUDS BELOW 12,000 FEET WITH NO
       SIGNIFICANT WEATHER AND/OR OBSTRUCTIONS TO VISIBILITY.
       CURRENT SKY AND/OR WEATHER CONDITIONS ARE NOT AVAILABLE FOR
       CHILLICOTHE AND FARMINGTON.

MOZ001>031-035>038-043-044-053-054-211000-
...NORTHERN AND WESTERN MISSOURI...

CITY           SKY/WX    TMP DP  RH WIND       PRES   REMARKS
KANSAS CTY INT CLOUDY    50  24  36 E9        30.26S
KANSAS C DTWN  CLOUDY    52  25  35 E5        30.25F
LEE`S SUMMIT   CLOUDY    50  27  40 MISG      30.27S
ST JOSEPH      CLOUDY    51  24  34 E3        30.29R
CHILLICOTHE      N/A     50  24  36 CALM      30.32F
KIRKSVILLE     CLOUDY    44  28  53 E3        30.35R

$$
MOZ066>068-077>081-088>096-101>105-211000-
...SOUTHWEST MISSOURI...

CITY           SKY/WX    TMP DP  RH WIND       PRES   REMARKS
SPRINGFIELD    CLOUDY    53  27  36 SE6       30.25R
JOPLIN         CLOUDY    50  28  42 E8        30.22F
BRANSON        MOCLDY    48  27  43 E6        30.23S

$$
MOZ032>034-039>042-045>050-055>058-069>072-211000-
...CENTRAL MISSOURI...

CITY           SKY/WX    TMP DP  RH WIND       PRES   REMARKS
COLUMBIA       MOCLDY    47  25  42 E5        30.31R
JEFFERSON CITY CLOUDY    48  24  39 CALM      30.31R
ROLLA          CLOUDY    45  25  45 E10       30.28F
SEDALIA        CLOUDY    50  28  42 E3        30.31R
WHITEMAN AFB   CLOUDY    49  28  45 E7        30.24F
WARRENSBURG    CLOUDY    48  28  46 NE8       30.27F
OSAGE BEACH    CLOUDY    50  27  40 E3        30.29R

$$
MOZ051-052-059>065-211000-
...EAST CENTRAL MISSOURI...

CITY           SKY/WX    TMP DP  RH WIND       PRES   REMARKS
ST LOUIS INTL  CLOUDY    48  27  44 E7        30.33S
SPIRIT OF STL  CLOUDY    41  36  82 CALM      30.32S
ST CHARLES     CLOUDY    45  30  55 E8        30.33S

$$
MOZ072>076-082>087-097>100-106>115-211000-
...SOUTH CENTRAL AND SOUTHEAST MISSOURI...

CITY           SKY/WX    TMP DP  RH WIND       PRES   REMARKS
CAPE GIRARDEAU FAIR      48  29  47 E7        30.29S
FARMINGTON     PTCLDY    41  31  67 CALM      30.31S
POPLAR BLUFF   FAIR      47  33  58 NE3       30.27S
WEST PLAINS    CLOUDY    44  27  51 NE7       30.26S

$$



USA.gov is the U.S. government's official web portal to all federal, state and local government web resources and services.